Skip Page Navigation
NASA JPL Caltech
NASA Logo - Jet Propulsion Laboratory + View the NASA Portal
+ Center for Near-Earth Object Studies
JPL Home Earth Solar System Stars & Galaxies Technology
JPL Solar System Dynamics
BODIES ORBITS EPHEMERIDES TOOLS PHYSICAL DATA DISCOVERY FAQ SITE MAP
JPL Small-Body Database Browser
Search: [ help ]  
67980 (2000 XU10)
Classification: Main-belt Asteroid          SPK-ID: 2067980
Ephemeris | Orbit Diagram | Orbital Elements | Mission Design | Physical Parameters | Discovery Circumstances ]

[ show orbit diagram ]
Orbital Elements at Epoch 2459200.5 (2020-Dec-17.0) TDB
Reference: JPL 29 (heliocentric ecliptic J2000)
 Element Value Uncertainty (1-sigma)   Units 
e .1241217726269307 3.4803e-08  
a 2.323182575738328 9.4744e-09 au
q 2.034825036301688 8.4905e-08 au
i 6.741665224208254 3.6566e-06 deg
node 306.0125515823354 2.9873e-05 deg
peri 352.5138049409095 3.3594e-05 deg
M 5.151103239441115 1.5747e-05 deg
tp 2459181.993632041373
(2020-Nov-28.49363204)
5.6579e-05 TDB
period 1293.37195459291
3.54
7.9119e-06
2.166e-08
d
yr
n .2783422036650783 1.7027e-09 deg/d
Q 2.611540115174968 1.065e-08 au
  Orbit Determination Parameters
   # obs. used (total)      1658  
   data-arc span      8317 days (22.77 yr)  
   first obs. used      1997-12-04  
   last obs. used      2020-09-11  
   planetary ephem.      DE441  
   SB-pert. ephem.      SB441-N16  
   condition code      0  
   norm. resid. RMS      .49468  
   source      ORB  
   producer      Otto Matic  
   solution date      2021-Apr-13 12:33:43  

Additional Information
 Earth MOID = 1.01736 au 
 Jupiter MOID = 2.58122 au 
 T_jup = 3.557 
[ show covariance matrix ]

Ephemeris | Orbit Diagram | Orbital Elements | Mission Design | Physical Parameters | Discovery Circumstances ]

Physical Parameter Table
Parameter Symbol Value Units Sigma Reference Notes
absolute magnitude H 14.53   n/a E2021B10  
diameter diameter 2.326 km 0.657 urn:nasa:pds:neowise_diameters_albedos::2.0[mainbelt] (http://adsabs.harvard.edu/abs/2011ApJ...741...68M)  
geometric albedo albedo 0.682   0.257 urn:nasa:pds:neowise_diameters_albedos::2.0[mainbelt] (http://adsabs.harvard.edu/abs/2011ApJ...741...68M)  

67980 (2000 XU10)          Discovered 2000-Dec-04 by BATTeRS at Bisei SG Center
Reference: 20030910/Numbers.arcLast Updated: 2004-04-19

Alternate Designations
 2000 XU10 = 2002 FR10 
Ephemeris | Orbit Diagram | Orbital Elements | Mission Design | Physical Parameters | Discovery Circumstances ]
ABOUT SSD CREDITS/AWARDS PRIVACY/COPYRIGHT GLOSSARY LINKS
FirstGov 2021-Jun-22 05:25 UT
(server date/time)  
NASA Home Page
Site Manager:   Ryan S. Park
Webmaster  Alan B. Chamberlin